STARLINK-33863, 63864

Orbit data source: Space-Track

STARLINK-33863, 63864 is a payload satellite owned by SpaceX/Seattle (US) in LEO that was launched on Sat, 10 May 2025 UTC via an FALCON 9 launch vehicle from the Air Force Western Test Range (AFWTR). Payload-class satellites include a variety of spacecraft equipped with specific instruments for various scientific and technological missions. These include communications satellites like Starlink; space stations such as the ISS; scientific satellites like the Hubble; Earth observation satellites from companies like Planet Labs, Umbra, and HawkEye 360; GPS; miniature CubeSats for education and research; and military/defense satellites.

Loading next visibility...
Identifier
63864, 2025-094A
Orbit
LEO
Country
Flag of USUS
Related business
Manufacturer
SpaceX/Seattle
Mission
Operational Commercial Communications
Bus & Motor
STARLINK V2MO, Unknown motor
Mass
575 kg wet, ~530 kg dry
Launch date (UTC)
2025-05-10 (1 year ago)
Launch vehicle
FALCON 9
Launch site
Air Force Western Test Range (AFWTR)
Object type
Payload
Rocket body
Debris
Shape & HBR
Box + 2 Pan, 17.7 m
Radar Cross Section
36.964 m², Large (>1 m²)

Expand to show TLE details & history
Last TLE update: 10 hours ago

TLE from 10 hours ago
0 STARLINK-33863
1 63864U 25094A   26171.46939240  .00004708  00000-0  40204-3 0  9993
2 63864  70.0025 335.5172 0002851 265.0954  94.9880 14.98338083 62593
Epoch: 2026-06-20T11:15Z
TLE epoch observation values (Epoch: 2026-06-20T11:15:55.503Z)
Latitude
0.00002°
Longitude
-102.14762°
Altitude
574.628 km
Speed
7.574 km/s
True Right ascension
22h 22m 04s
True Declination
0° 00' 00"
Sunlit
Object was in daylight at epoch
Visualization orbit readout
Latitude
Unknown
Longitude
Unknown
Altitude
Unknown
Speed
Unknown
Apparent Right ascension
Unknown
Apparent Declination
Unknown
Sunlit
N/A
Visualization observer readout
Local Sidereal Time
08:33:26
Azimuth
Unknown
Elevation
Unknown
Doppler factor
Unknown
Orbital elements
Apogee altitude
571.96 km
Perigee altitude
567.998 km
Semi-major axis
6,948.116 km
Eccentricity
0.00029
Inclination
70.0025°
RAAN
335.5172°
Arg. of periapsis
265.0954°
True anomaly
95.02055°
Mean anomaly
94.988°
Eccentric anomaly
95.00427°
Mean motion
3.74751 °/min
Orbital period
96.06 mins
BSTAR
0.00040204
Loading maneuver chart data...
Computing Atmospheric mass density...
Loading historical data...
Loading historical data...
Loading historical data...
Loading historical data...
Loading historical data...
Loading historical data...
Loading historical data...

Documentation

Showing up to 5 results
|